Wetbulb
40.63 40.81 40.94 41.27 41.78 42.12 42.25 43.03 43.29 43.54 43.80 43.91 44.03 44.10 44.67 44.85 44.61 46.46 48.80 50.05 49.97 49.81 49.24 47.61 47.04 47.54 47.29 46.48 45.06 44.27 42.67 41.99 39.98 43.18 34.31 32.80 32.50 32.55 32.30 33.88 34.43 34.80 35.76
39.98 40.20 40.44 40.69 40.86 41.03 41.47 42.23 42.20 42.46 42.54 43.08 42.80 42.66 43.58 44.08 44.02 44.27 46.03 47.50 47.58 47.31 47.56 47.34 46.19 45.90 44.89 46.05 45.17 42.60 41.96 41.86 40.37 39.36 34.70 29.56 30.29 31.93 31.54 31.30 32.08 33.51 33.02
38.72 38.93 39.46 39.50 39.35 39.51 39.84 40.34 40.60 40.58 40.39 40.07 40.12 40.36 41.31 42.46 43.41 45.30 47.13 46.80 46.61 47.04 47.00 45.40 45.58 43.62 42.52 43.12 43.18 41.66 41.22 40.42 39.71 38.42 37.26 29.45 29.31 30.08 29.43 30.46 30.63 31.26 32.01
37.41 37.29 37.22 37.49 37.51 37.64 37.74 37.88 37.80 37.90 37.80 38.00 38.12 38.66 38.92 39.85 41.04 44.19 45.07 44.57 44.60 45.19 44.99 44.81 43.64 42.56 41.98 41.61 40.64 40.14 39.33 37.83 35.88 35.37 29.38 28.07 28.33 29.01 29.52 27.99 26.52 28.03 28.08
35.54 35.29 35.51 35.46 35.29 34.78 34.77 34.57 34.67 34.40 35.79 35.54 35.46 35.16 35.14 35.97 38.91 40.83 41.35 41.99 41.49 41.85 40.02 39.56 39.75 39.33 38.75 40.53 38.86 37.94 35.95 35.37 32.94 33.06 31.07 27.51 26.16 26.10 26.44 27.29 26.64 26.43 26.75
33.46 33.14 33.47 32.32 31.92 32.01 31.96 32.09 32.24 32.98 33.27 33.50 33.52 33.37 33.50 35.86 38.49 40.11 40.46 37.62 36.63 37.16 37.90 36.47 36.36 34.46 36.28 38.70 40.10 40.25 37.10 34.69 33.34 32.43 31.67 28.75 26.62 26.91 27.55 26.87 26.07 24.49 22.96
31.34 30.62 29.86 30.37 30.05 30.75 30.79 30.83 31.17 31.18 31.58 31.67 31.90 31.92 31.57 32.22 37.18 38.76 38.81 36.69 35.55 35.71 35.21 34.46 33.93 33.36 33.23 33.84 36.26 38.64 38.24 38.17 36.96 33.06 30.60 29.26 27.00 28.16 27.95 26.40 26.60 26.66 26.08
31.48 30.22 28.38 29.04 28.52 28.00 28.30 28.34 29.58 30.00 30.11 29.74 29.50 28.80 28.00 29.98 35.92 37.14 37.41 34.61 34.29 33.55 33.17 32.82 32.73 32.48 32.01 31.74 32.22 32.54 32.43 32.39 33.01 31.96 31.69 30.16 30.18 29.89 29.72 29.10 28.29 26.82 26.52
31.56 31.10 30.29 28.92 27.80 27.54 27.42 27.49 26.55 26.61 25.71 26.12 26.47 25.40 22.75 26.70 34.40 35.56 35.82 33.12 32.31 31.56 31.06 31.03 31.09 30.85 32.05 34.15 31.40 30.49 30.14 29.95 33.32 33.97 33.76 34.28 34.46 33.53 32.16 29.60 26.63 25.87 23.44
30.53 29.92 28.42 27.25 25.72 25.75 26.66 26.55 24.13 22.08 26.38 26.04 25.67 22.09 23.15 28.89 32.87 33.97 34.39 31.64 30.45 28.96 28.89 29.49 29.92 30.58 32.16 34.45 30.59 29.73 28.19 28.84 30.28 30.91 31.67 33.17 33.97 33.62 34.06 30.69 28.44 25.58 23.55
26.82 26.20 25.40 24.86 23.68 23.74 23.89 22.34 22.56 22.07 22.88 21.15 21.74 20.92 22.02 27.00 29.32 32.78 35.16 30.18 29.52 28.28 28.21 28.12 29.43 33.06 33.20 34.52 32.65 30.29 29.57 31.17 32.28 29.85 29.42 29.22 29.33 29.81 29.43 28.95 29.06 27.44 23.68
23.46 23.09 23.10 21.90 25.24 25.07 18.46 19.46 17.42 16.13 17.39 19.55 18.89 22.94 22.08 23.08 29.33 33.60 33.07 31.22 30.48 27.98 27.71 28.01 29.15 32.78 34.03 34.28 31.10 34.10 34.44 30.99 29.54 28.14 27.27 26.42 26.19 26.18 26.62 26.49 26.75 25.31 25.39
20.32 21.52 21.66 22.06 26.13 20.66 15.58 18.76 17.40 12.32 15.28 18.66 19.72 18.79 24.21 26.43 29.56 33.71 32.91 32.66 30.90 28.41 29.08 29.73 31.68 33.40 34.59 33.17 34.01 33.99 30.01 29.20 27.43 26.27 24.98 24.03 23.41 24.49 24.06 20.97 20.13 19.16 18.69
25.94 25.40 23.27 24.27 26.32 23.83 20.03 19.34 18.04 18.52 18.63 20.90 20.40 20.43 25.36 25.38 27.75 29.30 30.13 29.12 29.72 29.75 31.01 30.25 32.58 33.05 33.45 32.00 31.32 30.82 29.54 28.51 27.24 26.94 26.21 24.60 23.46 21.91 19.23 19.29 16.47 15.77 11.89
21.21 25.52 26.46 26.84 25.61 23.76 22.50 22.21 22.05 21.41 22.61 18.47 19.40 19.19 20.27 22.78 27.82 30.99 29.17 28.08 28.47 30.00 29.48 29.74 29.02 28.55 27.81 27.51 27.50 26.92 26.89 26.47 25.90 23.80 22.38 20.37 19.13 18.68 17.23 17.16 14.88 11.12 7.96
19.62 23.42 25.39 26.60 26.62 26.54 23.45 22.95 28.20 31.54 31.47 31.20 31.37 25.84 25.30 29.20 33.52 33.30 32.93 32.92 32.60 31.41 26.22 25.66 26.24 26.12 25.30 25.23 24.72 21.38 18.69 19.19 18.62 18.66 16.84 16.55 15.24 14.65 13.35 11.58 11.21 7.06 8.41
12.62 16.90 19.96 22.73 25.56 25.79 21.66 20.53 25.08 27.23 31.81 32.66 31.41 31.03 30.74 31.99 33.78 33.29 33.37 33.16 32.46 29.48 24.20 22.62 21.91 21.26 20.00 19.27 17.81 16.02 14.60 14.02 13.41 13.89 13.07 13.25 12.80 10.68 5.84 5.74 8.49 9.22 5.76
6.45 10.82 13.83 17.19 21.13 24.85 23.42 21.76 17.96 17.49 18.49 20.78 26.07 31.52 33.14 33.74 33.77 33.45 31.88 27.43 21.68 21.12 18.70 17.21 15.20 14.27 13.39 12.45 12.14 10.95 10.13 9.68 8.87 8.83 7.62 5.94 4.82 2.70 2.47 4.85 5.37 1.00 0.75
7.11 10.53 13.26 17.50 21.54 24.07 24.09 23.63 21.07 20.87 20.17 19.63 20.52 22.02 22.32 29.15 28.32 27.70 26.41 20.26 16.80 12.42 10.32 8.27 6.91 6.67 4.86 4.68 4.96 4.84 3.92 4.29 2.17 -1.21 -3.45 -4.36 -5.81 -4.57 -4.20 -1.92 0.67 -0.85 -3.08
6.35 8.79 11.62 14.99 18.95 23.76 24.01 23.03 20.90 20.13 19.38 18.89 18.19 16.71 13.10 18.87 14.98 11.69 11.50 11.25 9.31 7.31 6.01 4.19 2.01 1.41 1.38 1.14 -0.90 -1.67 -2.09 -3.41 -5.19 -6.72 -10.02 -8.53 -9.73 -6.58 -7.88 -10.34 -10.87 -12.61 -14.75
7.35 9.80 12.51 15.94 19.45 24.49 23.11 21.99 20.79 19.56 17.85 16.33 15.56 16.03 18.26 13.53 9.88 7.89 6.19 4.45 3.08 1.07 -0.31 -0.93 -4.29 -5.90 -8.60 -6.39 -5.76 -5.61 -6.79 -8.64 -12.03 -12.97 -15.84 -19.03 -20.15 -16.27 -19.04 -11.75 -18.00 -17.85 -17.43
8.27 10.37 12.99 15.68 20.46 23.16 22.45 21.34 19.44 17.93 16.66 15.47 15.70 17.69 17.12 9.10 6.90 3.75 0.14 -2.57 -7.71 -7.58 -10.02 -6.32 -7.86 -8.29 -7.83 -7.15 -8.97 -8.84 -9.16 -14.31 -20.21 -20.98 -20.48 -22.92 -23.36 -23.81 -20.73 -17.78 -16.18 -17.27 -19.09
10.81 11.61 13.09 15.55 19.32 21.19 19.57 18.59 17.22 15.91 13.92 12.41 10.42 8.52 7.60 5.25 3.10 0.84 -2.07 -4.87 -5.46 -6.76 -8.65 -7.06 -5.86 -9.22 -13.67 -15.86 -16.33 -13.35 -13.14 -16.40 -18.08 -22.71 -21.31 -24.05 -23.87 -23.76 -23.47 -20.31 -20.84 -20.37 -19.43
9.49 11.29 12.97 13.79 15.83 16.92 16.61 15.46 14.37 12.90 10.77 9.03 7.49 5.51 3.88 1.52 -0.72 -2.04 -4.25 -5.81 -5.69 -11.09 -10.35 -9.10 -8.15 -9.47 -13.11 -18.12 -23.37 -26.57 -25.70 -25.12 -28.54 -25.06 -21.95 -22.02 -23.65 -22.58 -22.94 -23.09 -20.71 -20.06 -18.03
8.41 9.26 9.18 11.31 12.74 12.45 12.02 11.58 10.31 8.81 7.39 6.37 3.90 2.20 0.08 -0.93 -2.79 -3.33 -4.99 -8.31 -11.75 -9.45 -7.64 -8.25 -9.56 -12.84 -14.90 -17.13 -19.81 -23.94 -25.86 -8.61 -25.35 -24.36 -27.31 -23.12 -22.20 -23.32 -25.17 -23.29 -22.31 -19.84 -18.21
6.49 6.51 7.86 8.84 8.94 9.34 9.09 8.19 6.74 6.05 4.67 3.26 2.15 1.46 0.79 -0.41 -1.36 -3.20 -5.65 -6.54 -4.53 -5.61 -7.92 -8.95 -12.84 -16.09 -16.25 -15.02 -20.70 -18.86 -14.33 -7.91 -15.20 -14.13 -22.89 -21.44 -22.36 -25.05 -25.48 -23.43 -23.49 -20.31 -18.92
MSLP
1019.46 1019.33 1019.21 1019.10 1018.95 1018.90 1019.08 1019.14 1018.91 1018.70 1018.55 1018.39 1018.30 1018.32 1018.36 1018.28 1018.17 1018.10 1017.96 1017.97 1017.83 1017.80 1017.85 1017.90 1017.83 1018.10 1018.10 1018.31 1018.61 1018.78 1018.91 1019.29 1018.87 1018.14 1018.96 1019.26 1019.76 1020.05 1020.29 1020.55 1021.00 1021.31 1021.66
1020.07 1019.65 1019.43 1019.22 1019.03 1018.91 1018.99 1019.04 1018.61 1018.33 1018.10 1017.99 1017.73 1017.69 1017.68 1017.53 1017.50 1017.39 1017.35 1017.33 1017.27 1017.22 1017.16 1017.32 1017.26 1017.41 1017.46 1017.49 1017.64 1017.86 1017.98 1017.86 1018.24 1017.78 1018.25 1019.17 1019.39 1019.75 1019.99 1020.46 1020.95 1021.18 1021.74
1020.40 1020.09 1019.71 1019.44 1019.37 1019.24 1019.19 1018.76 1018.47 1018.26 1017.83 1017.59 1017.47 1017.26 1016.97 1017.03 1016.89 1016.70 1016.55 1016.50 1016.45 1016.33 1016.41 1016.49 1016.43 1016.62 1016.69 1016.79 1016.84 1016.93 1017.19 1017.25 1017.20 1017.62 1017.99 1018.87 1019.27 1019.51 1019.99 1020.52 1020.98 1021.40 1021.91
1020.83 1020.77 1020.59 1020.14 1020.12 1019.84 1019.19 1018.63 1018.27 1018.02 1017.84 1017.53 1017.06 1016.84 1016.65 1016.54 1016.37 1016.13 1015.99 1015.87 1015.74 1015.66 1015.60 1015.58 1015.80 1015.81 1015.88 1015.90 1016.11 1016.09 1016.21 1016.64 1016.90 1017.23 1017.82 1018.20 1018.70 1019.08 1019.62 1020.21 1020.84 1021.23 1021.82
1021.53 1021.35 1021.09 1020.83 1020.71 1020.10 1019.63 1019.18 1018.74 1018.25 1017.80 1017.48 1017.09 1016.57 1016.27 1016.08 1015.88 1015.73 1015.60 1015.39 1015.21 1015.14 1015.12 1014.98 1015.17 1015.08 1015.14 1015.20 1015.35 1015.40 1015.76 1016.02 1016.39 1016.77 1017.28 1017.79 1018.25 1018.71 1018.94 1019.40 1020.07 1020.65 1021.45
1021.84 1021.75 1021.54 1021.14 1020.63 1020.44 1020.10 1019.61 1019.08 1018.55 1018.03 1017.58 1017.09 1016.74 1016.24 1015.76 1015.40 1015.26 1015.07 1014.97 1014.91 1014.79 1014.74 1014.50 1014.52 1014.58 1014.54 1014.64 1014.74 1014.83 1014.95 1015.25 1015.57 1016.02 1016.48 1016.89 1017.34 1017.72 1018.16 1018.85 1019.73 1020.45 1021.36
1021.73 1021.46 1021.07 1020.70 1020.55 1020.23 1019.88 1019.52 1018.98 1018.46 1018.02 1017.61 1017.17 1016.74 1016.24 1015.65 1015.16 1014.97 1014.63 1014.45 1014.28 1014.26 1014.26 1014.20 1014.24 1014.22 1014.22 1014.28 1014.23 1014.34 1014.46 1014.77 1014.98 1015.38 1015.76 1016.20 1016.60 1016.77 1017.29 1018.48 1019.13 1019.80 1020.35
1021.23 1021.08 1020.82 1020.72 1020.44 1020.06 1019.75 1019.43 1018.89 1018.37 1017.86 1017.34 1016.88 1016.57 1016.17 1015.62 1015.05 1014.71 1014.41 1014.27 1014.26 1014.06 1014.00 1013.90 1013.85 1013.78 1013.71 1013.95 1014.11 1014.06 1014.20 1014.60 1014.97 1015.15 1015.44 1015.89 1016.55 1017.06 1017.42 1018.13 1018.93 1019.65 1020.71
1021.24 1020.99 1020.77 1020.68 1020.38 1020.01 1019.62 1019.26 1018.72 1018.19 1017.86 1017.33 1016.81 1016.41 1016.13 1015.46 1015.04 1014.64 1014.49 1014.37 1014.19 1014.16 1014.04 1013.90 1013.76 1013.73 1013.62 1013.65 1013.92 1014.10 1014.32 1014.95 1015.26 1015.80 1015.66 1015.66 1016.12 1016.67 1017.84 1018.15 1019.23 1020.15 1020.61
1021.59 1021.30 1021.10 1020.93 1020.65 1020.11 1019.64 1019.21 1018.65 1018.31 1017.60 1017.20 1016.63 1016.04 1015.57 1015.13 1014.79 1014.40 1014.30 1014.13 1014.22 1014.15 1014.15 1013.95 1013.77 1013.70 1013.63 1013.59 1013.87 1014.08 1014.64 1015.07 1015.43 1015.46 1016.34 1015.86 1016.34 1016.70 1017.61 1018.11 1018.79 1019.65 1020.43
1021.91 1021.56 1021.09 1020.76 1020.66 1020.24 1019.70 1019.30 1018.68 1018.14 1017.47 1017.15 1016.81 1016.27 1015.79 1015.24 1014.48 1013.90 1013.49 1013.97 1014.19 1014.28 1014.29 1014.17 1013.87 1013.64 1013.47 1013.56 1014.04 1014.09 1014.41 1015.10 1015.65 1016.08 1016.59 1016.83 1017.33 1017.57 1017.99 1018.51 1018.93 1019.46 1020.54
1021.98 1021.69 1020.98 1020.68 1020.34 1019.99 1019.76 1019.08 1018.64 1018.35 1017.69 1017.09 1016.64 1016.24 1015.66 1015.19 1014.64 1013.92 1013.68 1013.60 1013.78 1014.20 1014.42 1014.36 1014.15 1013.84 1013.77 1013.93 1014.31 1014.48 1014.75 1015.55 1016.08 1016.68 1017.14 1017.67 1018.19 1018.73 1018.84 1019.08 1019.64 1019.99 1020.47
1021.97 1021.31 1020.81 1020.30 1019.87 1019.62 1019.43 1018.88 1018.53 1018.22 1017.58 1016.85 1016.31 1015.80 1015.32 1014.92 1014.62 1014.15 1014.08 1013.96 1013.95 1014.19 1014.24 1014.54 1014.39 1014.02 1014.01 1014.44 1014.49 1014.85 1015.25 1015.91 1016.61 1017.27 1017.88 1018.29 1018.96 1019.43 1019.83 1020.09 1020.57 1020.92 1021.35
1021.70 1021.07 1020.46 1019.98 1019.27 1018.97 1018.69 1018.23 1017.82 1017.42 1016.90 1016.43 1015.97 1015.62 1015.03 1014.57 1014.42 1014.32 1014.26 1014.34 1014.14 1014.24 1014.41 1014.61 1014.58 1014.38 1014.60 1014.83 1015.19 1015.42 1015.81 1016.51 1016.89 1017.68 1017.94 1018.57 1019.23 1019.84 1020.57 1020.85 1021.37 1021.84 1022.31
1021.51 1020.79 1020.06 1019.48 1019.03 1018.58 1018.16 1017.62 1017.02 1016.41 1016.14 1015.71 1015.24 1015.11 1014.95 1014.62 1014.35 1014.25 1014.15 1014.28 1014.51 1014.65 1014.82 1014.98 1015.10 1015.27 1015.55 1015.72 1016.20 1016.56 1016.91 1017.23 1017.36 1017.79 1018.39 1019.46 1020.09 1020.39 1020.89 1021.26 1021.68 1022.22 1022.68
1021.36 1020.42 1019.63 1018.92 1018.21 1017.73 1017.32 1016.69 1016.15 1015.40 1015.05 1014.85 1014.45 1014.63 1014.50 1014.18 1014.11 1014.20 1014.29 1014.30 1014.48 1014.83 1015.28 1015.75 1016.09 1016.24 1016.44 1016.66 1016.99 1017.41 1018.09 1018.23 1018.39 1018.70 1019.51 1019.99 1020.42 1020.81 1021.20 1021.75 1021.97 1022.44 1023.01
1021.27 1020.25 1019.33 1018.63 1017.72 1017.01 1016.63 1016.44 1015.97 1015.16 1014.65 1014.39 1014.28 1014.25 1014.32 1014.15 1014.23 1014.30 1014.41 1014.58 1014.95 1015.33 1015.89 1016.50 1017.12 1017.37 1017.78 1018.06 1018.29 1018.55 1019.13 1019.47 1019.36 1019.87 1020.35 1020.58 1020.89 1021.46 1022.02 1022.63 1022.91 1023.21 1023.77
1020.83 1020.00 1019.26 1018.27 1017.39 1016.50 1016.09 1015.79 1015.72 1015.52 1015.06 1014.98 1014.67 1014.22 1014.23 1014.26 1014.40 1014.60 1014.84 1015.09 1015.88 1016.61 1017.14 1017.81 1018.37 1018.99 1019.30 1019.35 1019.59 1019.80 1020.06 1020.25 1020.65 1020.78 1021.06 1021.64 1022.05 1022.62 1023.13 1023.49 1023.59 1024.06 1024.52
1020.35 1019.47 1018.71 1017.70 1016.66 1015.82 1015.32 1015.25 1015.35 1015.44 1015.37 1015.46 1015.38 1015.15 1014.88 1014.72 1014.96 1015.31 1015.50 1016.07 1017.14 1018.15 1018.61 1019.15 1019.80 1020.19 1020.47 1020.55 1020.68 1020.84 1020.93 1021.27 1021.62 1022.03 1022.56 1022.86 1023.20 1023.65 1023.90 1024.10 1024.56 1024.85 1024.96
1019.48 1018.65 1017.98 1017.03 1015.97 1014.96 1014.59 1014.62 1015.08 1015.33 1015.45 1015.60 1015.74 1015.92 1015.78 1015.48 1015.99 1016.71 1017.29 1017.75 1018.42 1019.18 1019.98 1020.59 1021.07 1021.07 1021.25 1021.35 1021.41 1021.48 1021.96 1022.41 1022.85 1023.26 1023.66 1023.85 1024.08 1024.08 1024.69 1024.90 1025.27 1025.54 1025.59
1018.69 1017.80 1017.02 1016.16 1015.15 1014.12 1013.91 1014.03 1014.49 1014.99 1015.46 1015.84 1016.00 1016.25 1015.72 1015.80 1017.12 1017.95 1018.79 1019.48 1020.08 1020.68 1021.26 1021.60 1021.85 1021.99 1022.21 1022.29 1022.29 1022.48 1022.78 1023.35 1023.76 1024.15 1024.54 1024.71 1024.84 1025.47 1025.19 1025.16 1025.61 1025.80 1026.23
1017.82 1016.91 1016.14 1015.19 1014.21 1013.32 1013.27 1013.54 1014.07 1014.79 1015.41 1015.82 1016.51 1016.48 1016.13 1016.79 1017.89 1018.96 1020.03 1020.73 1021.29 1021.73 1022.00 1021.98 1022.36 1022.86 1023.14 1023.07 1023.02 1023.01 1023.57 1024.03 1024.42 1024.89 1024.97 1025.16 1025.37 1025.48 1025.52 1025.75 1026.03 1026.44 1026.75
1016.76 1016.04 1015.22 1014.48 1013.69 1013.11 1013.12 1013.38 1013.91 1014.63 1015.50 1016.24 1016.89 1016.91 1017.18 1017.98 1018.93 1019.82 1020.72 1021.44 1021.85 1022.12 1022.39 1022.36 1022.38 1023.00 1023.45 1023.56 1023.76 1023.78 1023.88 1024.30 1024.69 1025.20 1025.22 1025.42 1025.57 1025.67 1025.77 1026.20 1026.53 1026.81 1026.70
1016.15 1015.38 1014.56 1013.97 1013.51 1013.21 1013.15 1013.49 1014.06 1014.81 1015.64 1016.81 1017.12 1017.47 1018.12 1018.94 1019.71 1020.44 1021.04 1021.53 1021.98 1022.58 1022.69 1022.60 1022.72 1023.01 1023.43 1023.93 1024.05 1024.15 1024.22 1024.35 1024.60 1024.82 1024.83 1025.29 1025.48 1025.79 1026.00 1026.23 1026.37 1026.40 1026.56
1015.69 1014.88 1014.27 1013.92 1013.67 1013.56 1013.60 1014.00 1014.53 1015.31 1016.37 1017.18 1017.64 1018.21 1018.94 1019.54 1020.14 1020.64 1021.17 1021.71 1022.26 1022.35 1022.51 1022.71 1022.93 1023.19 1023.47 1023.73 1023.85 1023.92 1024.03 1023.87 1024.26 1024.31 1024.60 1025.01 1025.61 1025.67 1025.78 1025.86 1026.05 1026.18 1026.18
1015.68 1015.20 1014.78 1014.45 1014.31 1014.21 1014.41 1014.89 1015.44 1016.18 1017.13 1017.78 1018.25 1018.72 1019.22 1019.69 1020.31 1020.84 1021.33 1021.91 1022.27 1022.18 1022.49 1022.71 1022.95 1023.20 1023.38 1023.38 1023.39 1023.40 1023.48 1023.48 1023.63 1023.78 1024.11 1024.75 1025.35 1025.30 1025.40 1025.47 1025.68 1025.79 1025.95
Wind_Speed
7 6 6 6 5 4 4 6 6 5 6 7 7 7 8 9 8 9 12 12 13 12 10 11 13 12 10 9 8 9 10 10 14 10 2 3 6 8 7 9 9 10 11
7 7 7 6 6 5 5 7 5 6 6 7 6 7 8 9 8 10 12 11 13 13 13 14 12 8 12 12 9 12 11 10 10 16 3 4 5 7 6 9 7 6 7
7 8 8 9 8 8 6 6 6 6 6 6 6 7 7 8 8 10 11 12 12 13 12 11 12 10 11 9 10 9 9 9 9 9 6 1 2 4 4 4 6 4 4
8 8 9 10 10 10 10 10 10 9 8 7 6 7 7 7 8 9 10 11 11 11 11 11 11 11 12 11 10 10 9 7 6 7 3 3 2 3 5 6 4 3 4
7 7 7 7 7 8 8 9 9 8 8 7 8 7 7 6 7 8 10 11 10 11 8 8 8 9 11 11 7 7 7 7 5 6 5 3 4 4 8 5 6 5 2
5 5 5 5 6 6 7 8 8 8 8 7 8 7 8 6 11 15 13 8 7 9 9 7 7 7 9 13 14 15 11 9 9 6 6 5 5 4 6 6 5 4 4
5 5 5 5 5 6 6 7 7 7 6 8 8 7 8 7 13 14 14 8 7 8 7 5 5 4 6 6 10 13 13 15 10 7 6 6 6 8 8 8 6 3 3
7 5 3 5 7 6 6 7 7 6 7 8 7 6 6 7 12 12 11 5 6 6 5 5 5 5 5 5 4 4 3 2 1 3 4 4 2 6 8 5 6 5 4
10 11 10 10 11 9 9 8 6 6 5 5 4 6 5 6 10 10 8 4 4 4 3 3 3 3 5 9 4 4 5 4 6 7 10 12 14 17 9 7 5 4 2
9 11 9 9 9 11 10 10 4 4 8 6 6 4 5 5 9 10 9 1 2 2 2 2 4 3 5 8 4 6 6 6 6 6 3 7 8 10 13 4 6 5 2
7 9 9 8 9 8 9 5 6 8 8 6 6 5 6 5 6 9 5 1 2 1 2 2 2 4 4 7 7 5 6 8 9 6 5 5 5 5 5 4 4 4 2
8 9 9 8 7 7 7 7 6 6 6 6 5 5 3 5 8 6 2 2 2 1 1 1 2 1 6 10 6 11 16 10 5 5 5 4 4 2 3 4 4 5 3
7 9 8 8 8 5 6 7 5 4 4 6 4 3 3 2 3 2 3 4 4 1 1 3 4 5 11 8 11 15 9 6 6 6 4 3 2 2 5 5 7 9 9
11 12 10 10 13 9 5 4 4 5 5 5 4 3 2 1 1 2 3 3 6 3 3 1 5 9 10 7 7 8 6 5 4 3 3 3 3 2 2 1 2 2 3
9 10 12 9 9 10 8 6 6 5 6 4 4 3 2 1 1 5 5 3 2 4 4 4 5 6 6 6 6 6 4 3 4 3 3 3 2 2 2 1 2 1 3
10 8 8 8 7 7 7 8 11 13 13 12 12 6 2 4 9 10 10 11 11 10 3 3 4 4 4 4 4 5 4 5 3 4 3 2 2 3 3 2 2 2 2
8 10 8 9 9 8 6 5 8 3 7 6 6 7 9 7 11 11 11 13 11 7 4 5 4 4 4 4 4 4 3 3 3 4 3 3 4 4 3 2 2 2 2
7 11 9 9 9 9 7 5 3 3 1 2 9 4 7 11 10 14 15 10 6 7 4 4 5 4 3 4 3 2 3 3 3 4 5 4 4 3 2 2 2 2 2
8 8 8 9 10 10 7 5 4 3 2 2 1 6 8 17 16 13 11 5 6 4 4 5 3 3 3 3 3 3 3 4 3 3 3 3 3 3 2 3 3 4 4
8 12 11 9 10 9 7 6 5 4 4 3 2 1 2 2 4 4 6 5 6 5 4 4 2 3 3 3 3 3 4 4 3 3 3 3 3 3 3 3 2 3 1
8 9 11 10 10 9 7 7 6 6 4 3 1 3 6 7 6 5 5 5 5 4 4 3 3 3 3 3 3 4 4 4 3 3 2 2 1 3 2 3 3 3 3
9 9 9 9 9 6 7 7 7 6 6 6 3 5 15 8 7 6 5 4 3 3 1 3 3 3 2 2 2 4 4 3 2 2 3 3 2 3 2 3 2 2 2
9 9 9 9 8 5 5 6 7 7 6 5 4 4 5 6 5 5 5 3 2 3 2 2 3 3 2 3 2 2 4 3 3 4 4 3 3 2 2 2 3 2 2
9 9 9 6 4 4 5 6 6 8 7 5 4 5 6 5 5 6 5 4 3 3 2 2 3 3 3 1 1 1 2 2 3 4 5 4 3 3 2 2 2 2 2
7 5 3 2 2 3 5 6 7 7 6 5 5 5 5 5 4 4 3 3 3 3 2 2 1 2 2 3 3 3 4 3 4 4 3 4 5 5 3 2 3 2 2
4 3 2 2 2 3 5 6 6 6 5 4 4 4 4 4 4 3 3 2 2 2 1 1 1 3 4 4 5 5 5 5 5 7 5 4 4 3 3 3 4 2 3
Wind_Direction
8 354 356 347 332 320 297 284 268 263 248 240 239 236 236 235 226 229 240 244 243 240 226 223 227 226 230 226 219 220 222 223 254 264 212 166 196 207 205 206 210 206 210
356 2 5 2 358 349 320 294 289 274 267 256 248 239 239 235 227 224 236 238 241 242 241 246 237 226 231 234 229 224 228 221 238 261 176 184 192 205 193 192 201 195 202
0 3 0 4 359 352 325 318 309 294 278 273 253 247 246 242 235 229 239 246 244 242 240 235 236 226 234 233 234 229 230 229 226 244 249 128 139 174 152 157 172 164 174
2 3 357 356 347 336 334 339 339 333 313 304 287 274 262 256 246 248 249 246 247 244 236 236 233 227 233 231 234 232 230 223 213 225 185 167 161 155 165 164 157 155 173
346 348 343 329 314 330 329 328 323 321 312 301 300 289 272 258 256 253 251 248 242 244 234 228 230 227 230 230 228 227 211 219 203 216 206 161 164 159 181 165 182 158 126
330 309 289 305 322 308 303 305 304 302 302 299 292 283 288 275 259 254 250 239 238 243 247 235 230 230 239 240 241 236 205 209 217 209 219 210 182 166 159 168 145 150 168
292 287 290 305 307 311 307 308 306 299 293 293 291 289 279 275 278 267 251 242 235 236 234 229 237 230 229 237 249 248 232 229 220 199 194 193 179 173 150 151 149 141 114
335 329 311 323 318 306 307 295 300 300 305 304 297 290 291 286 295 283 269 249 247 244 234 232 234 234 220 222 229 226 172 165 221 163 184 137 134 142 141 128 134 102 86
339 338 339 337 327 324 316 309 293 286 286 284 275 289 288 293 302 292 288 263 259 264 273 258 239 238 249 236 196 161 122 97 113 128 131 135 137 135 126 119 126 140 124
329 324 321 319 317 316 314 315 296 289 296 296 295 265 270 283 304 300 284 226 258 266 310 303 249 230 257 243 153 144 134 134 126 122 106 114 129 154 151 130 139 145 107
312 312 311 308 301 294 303 302 303 309 310 305 298 295 293 282 280 281 258 203 272 260 263 261 262 242 234 151 143 138 130 130 122 105 96 82 79 97 104 95 104 114 126
306 302 301 298 296 293 291 292 295 296 292 292 294 293 287 299 297 293 138 154 179 181 250 263 268 202 133 120 114 132 124 105 97 86 78 60 55 39 67 78 75 76 54
301 298 298 298 297 271 284 291 298 289 285 282 270 273 281 294 305 110 90 85 86 84 117 230 199 144 119 113 124 110 98 104 106 98 96 99 89 65 91 77 76 80 66
297 301 305 307 308 298 275 262 271 277 278 279 272 263 254 261 292 88 83 58 61 62 69 30 109 102 98 81 94 90 94 99 102 109 103 76 74 92 84 78 85 96 87
283 286 290 293 293 299 282 273 266 252 247 250 248 217 201 242 197 129 117 104 86 90 70 71 78 80 80 76 73 72 60 67 83 73 79 104 119 96 81 79 91 79 96
289 286 283 289 282 278 283 294 285 275 282 273 271 210 225 205 169 131 131 130 123 121 80 82 72 69 74 82 98 96 50 52 52 83 93 119 128 129 117 67 78 90 106
269 284 286 285 285 280 273 262 286 2 50 271 228 202 191 175 150 142 143 127 109 93 76 66 73 71 66 61 60 49 68 37 65 76 91 91 90 75 75 57 69 80 72
269 269 272 274 273 272 260 232 221 225 124 348 13 159 178 155 152 122 115 96 71 50 53 71 71 51 48 61 55 76 85 76 60 62 69 62 59 97 77 90 81 115 103
286 279 271 272 273 263 243 211 190 180 135 145 348 47 37 89 85 80 78 88 105 87 67 71 62 66 62 71 84 79 72 66 64 72 55 80 74 112 83 80 96 93 116
274 264 261 266 268 254 220 192 181 175 166 171 170 217 267 87 59 53 54 77 92 91 86 96 85 85 83 84 79 79 81 66 65 66 68 70 56 73 106 119 108 132 128
279 278 267 270 269 245 206 191 178 168 162 142 132 236 158 111 100 82 78 65 78 85 92 99 78 71 57 75 79 76 78 79 71 80 94 82 92 92 92 94 122 100 120
273 272 271 268 269 226 196 176 163 157 151 139 137 114 103 91 97 96 88 86 76 88 95 112 104 80 71 81 103 96 97 106 113 118 108 107 110 115 125 97 94 102 117
273 269 270 267 258 209 169 159 151 145 142 127 154 119 91 95 97 98 105 114 109 103 92 95 107 101 74 67 63 104 123 155 186 158 143 149 139 124 119 130 139 121 141
279 274 268 254 222 194 165 151 138 128 122 135 123 106 106 108 113 121 127 126 112 85 67 82 85 100 105 101 128 141 137 156 161 171 145 135 143 138 131 127 168 151 153
284 276 266 241 194 153 129 126 120 114 114 128 116 107 110 113 113 107 110 96 96 112 102 96 111 137 191 214 222 216 219 214 173 159 131 128 162 173 165 153 156 159 146
313 324 343 28 76 89 102 110 104 103 114 116 114 115 124 118 118 121 116 131 164 156 177 195 204 229 233 231 228 225 222 223 208 189 161 156 168 180 168 168 168 164 177